550  
NZUS99 KDVN 190210  
HRRRRR  
HOURLY WEATHER ROUNDUP  
NATIONAL WEATHER SERVICE QUAD CITIES IA IL  
900 PM CDT WED JUL 18 2018  
 
NOTE: "FAIR" INDICATES FEW OR NO CLOUDS BELOW 12,000 FEET WITH  
NO SIGNIFICANT WEATHER AND/OR OBSTRUCTIONS TO VISIBILITY.  
------------------------------------------------------------------  
 
CITY SKY/WX TMP DP RH WIND PRES REMARKS  
BURLINGTON CLOUDY 76 66 71 SE7 30.00S  
CEDAR RAPIDS FAIR 73 66 78 SE7 29.99R  
DAVENPORT FAIR 71 62 73 SE6 30.03S  
DUBUQUE FAIR 71 63 75 SE9 30.03S  
IOWA CITY FAIR 76 67 73 SE7 30.00S  
MOLINE FAIR 72 65 78 SE6 30.01R  
------------------------------------------------------------------  
THE STATIONS BELOW ARE NOT NWS STATIONS AND ARE NOT SUBJECT TO NWS  
QUALITY CONTROL. SOME STATIONS DO NOT REPORT WEATHER SUCH AS FOG.  
* - STATIONS THAT REPORT TMP AND DP IN WHOLE DEGREES CELSIUS, WHICH  
ARE THEN CONVERTED TO FAHRENHEIT.  
------------------------------------------------------------------  
 
CITY SKY/WX TMP DP RH WIND PRES REMARKS  
CLINTON NOT AVBL  
FAIRFIELD * CLOUDY 75 66 73 SE6 29.98S  
FORT MADISON * CLOUDY 75 66 73 SE7 30.00S  
FREEPORT FAIR 67 64 89 CALM 30.04F  
INDEPENDENCE * N/A 71 67 87 SE5 30.00S  
KEOKUK * NOT AVBL  
MACOMB CLOUDY 68 66 91 SE6 30.03S  
MONTICELLO * FAIR 72 66 83 SE6 30.00S  
MT PLEASANT CLOUDY 72 64 78 SE5 30.00R  
MUSCATINE * FAIR 75 66 73 SE7 30.00S  
SAVANNA FAIR 70 64 83 SE3 30.02S  
STERLING/R.F. FAIR 69 64 84 CALM 30.03R  
VINTON * FAIR 76 68 77 E5 29.99S  
WASHINGTON * CLOUDY 73 72 94 SE6 30.00S  
------------------------------------------------------------------  
 
 
CLICK HERE TO GO TO PREVIOUS BULLETINS.

The Nexlab IL Page
The Nexlab IA Page
The Nexlab MO Page Main Text Page